Richard B Russell Airport
KRMG : now visible

Airfield :











YOU CAN JOIN US ON...

 
LOGIN :

Register | Disclaimer

   EN    FR    IT 

 









Legend :    VFR   Marginal VFR   IFR   Intensive IFR   Very Intensive IFR
Visi :
Ceiling :
>= 8 km
>= 3000ft
5 to 8 km
1000 to 3000 ft
1500m to 5 km
500 to 1000 ft
800 to 1500m
200 to 500 ft
< 800m
< 200 ft
Symbols :   Thunderstorms  Fog  Heavy snow  Heavy precipitations  Wind > 20 kt






- Airport Elevation : 644 ft


KRMG - Richard B Russell

CURRENT METAR :
  • 100653Z AUTO VRB03KT 10SM FEW120 16/00 A2983 RMK AO2 SLP093 T01560000

EXPIRED METARs :
  • 100553Z AUTO 31003KT 10SM OVC120 16/02 A2984 RMK AO2 SLP098 T01560017 10206 20144 50004
  • 100453Z AUTO 31003KT 10SM SCT120 17/02 A2985 RMK AO2 SLP100 T01670022 402440156

TAF N/A



MET'MAP, your aeronautical weather chart ! - Copyright ORBIFLY December 2007 - Disclaimer

ORBIFLY MET'MAP TEAM :

Programming & Development : Alexandra Zaïnal
Concept & original design : Baudouin d'Aumeries
Assistance for programming : Marc-Olivier Méhu
Technical & hardware support : Manuel Goepfert

Contact : metmap@orbifly.com




SOURCES & CREDITS :

   NOAA       Earth
Advisory